Location: Asheville, NC
(35.6000°N, 82.5500°W)
Time: 14:16:25
(UTC-05:00)

Vanguard 1 Rocket - Pass Details

Date: 15 December 2017
Orbit: 656 x 4222 km, 34.3° (Epoch: 18 January)

Event Time Altitude Azimuth Distance (km) Brightness Sun altitude
Rises 01:59:50 0° 279° (W) 7,878 - -66.1°
Reaches altitude 10° 02:08:01 10° 264° (W) 7,233 - -64.6°
Maximum altitude 02:21:57 18° 230° (SW) 6,702 - -61.9°
Drops below altitude 10° 02:35:43 10° 196° (SSW) 6,966 - -59.2°
Exits shadow 02:37:21 - 192° (SSW) 7,049 11.7 -58.9°
Sets 02:43:42 0° 179° (S) 7,468 12.0 -57.7°
